Back to catalog

DUMMY MASS 1

AliveSciencePO
NORAD 24925·PAYLOAD·🇨🇳 China

Launched Sep 1, 1997 from Taiyuan Satellite Launch Center

Loading…

Next Passes (next 24 hours)

TLE

FreshSource: Space-Track

Epoch: Sep 14, 2026, 01:11 UTC

1 24925U 97048A   26257.04940491  .00000244  00000-0  23871-4 0  9998
2 24925  86.3298 285.2952 0006018 358.1234   1.9967 14.87390096572580

Track DUMMY MASS 1 in real time with AllMySat

Download on the App Store